• In Hungary
  • List of Countries
  • For 7 days
  • Water Temperature
  • Satellite Maps
  • Weather Map
  • News
  • Weather Widgets
  • user-avatar
    Login

    Hourly Weather Horodyni

    Today, 18 December, Monday

    Time Temperature Precipitation Wind Pressure Humidity
    00:00 -2°C° 0 mm 1 mps 747 mmHg 94%
    01:00 -4°C° 0 mm 2 mps 747 mmHg 94%
    02:00 -2°C° 0 mm 1 mps 747 mmHg 94%
    03:00 -4°C° 0 mm 2 mps 747 mmHg 94%
    04:00 -4°C° 0 mm 2 mps 747 mmHg 93%
    05:00 -4°C° 0 mm 2 mps 747 mmHg 93%
    06:00 -4°C° 0 mm 2 mps 747 mmHg 92%
    07:00 -5°C° 0 mm 3 mps 747 mmHg 91%
    08:00 -5°C° 0 mm 3 mps 747 mmHg 89%
    09:00 -4°C° 0 mm 3 mps 748 mmHg 86%
    10:00 -4°C° 0 mm 4 mps 748 mmHg 83%
    11:00 -3°C° 0 mm 4 mps 748 mmHg 81%
    12:00 -3°C° 0 mm 4 mps 748 mmHg 80%
    13:00 -4°C° 0 mm 5 mps 748 mmHg 79%
    14:00 -4°C° 0 mm 5 mps 747 mmHg 79%
    15:00 -4°C° 0 mm 5 mps 747 mmHg 80%
    16:00 -4°C° 0 mm 5 mps 747 mmHg 81%
    17:00 -4°C° 0 mm 5 mps 747 mmHg 82%
    18:00 -4°C° 0 mm 5 mps 747 mmHg 82%
    19:00 -4°C° 0 mm 5 mps 747 mmHg 82%
    20:00 -5°C° 0 mm 5 mps 748 mmHg 83%
    21:00 -5°C° 0 mm 5 mps 748 mmHg 84%
    22:00 -5°C° 0 mm 5 mps 748 mmHg 85%
    23:00 -5°C° 0 mm 5 mps 748 mmHg 86%

    Tomorrow, 19 December, Tuesday

    Time Temperature Precipitation Wind Pressure Humidity
    00:00 -5°C° 0 mm 6 mps 748 mmHg 86%
    01:00 -5°C° 0 mm 6 mps 748 mmHg 86%
    02:00 -5°C° 0 mm 6 mps 748 mmHg 85%
    03:00 -5°C° 0 mm 6 mps 748 mmHg 85%
    04:00 -5°C° 0 mm 6 mps 748 mmHg 84%
    05:00 -5°C° 0 mm 6 mps 748 mmHg 83%
    06:00 -5°C° 0 mm 6 mps 748 mmHg 83%
    07:00 -5°C° 0 mm 6 mps 749 mmHg 83%
    08:00 -5°C° 0 mm 6 mps 749 mmHg 83%
    09:00 -5°C° 0 mm 6 mps 749 mmHg 82%
    10:00 -5°C° 0 mm 6 mps 749 mmHg 81%
    11:00 -5°C° 0 mm 6 mps 750 mmHg 79%
    12:00 -4°C° 0 mm 6 mps 750 mmHg 79%
    13:00 -4°C° 0 mm 6 mps 750 mmHg 79%
    14:00 -4°C° 0 mm 6 mps 750 mmHg 79%
    15:00 -4°C° 0 mm 6 mps 750 mmHg 81%
    16:00 -4°C° 0 mm 6 mps 750 mmHg 82%
    17:00 -4°C° 0 mm 5 mps 750 mmHg 83%
    18:00 -5°C° 0 mm 5 mps 750 mmHg 84%
    19:00 -5°C° 0 mm 5 mps 750 mmHg 84%
    20:00 -5°C° 0 mm 5 mps 750 mmHg 85%
    21:00 -5°C° 0 mm 5 mps 750 mmHg 85%
    22:00 -5°C° 0 mm 5 mps 750 mmHg 86%
    23:00 -5°C° 0 mm 5 mps 750 mmHg 86%

    Day after tomorrow, 20 December, Wednesday

    Time Temperature Precipitation Wind Pressure Humidity
    00:00 -5°C° 0 mm 5 mps 750 mmHg 87%
    01:00 -5°C° 0 mm 5 mps 750 mmHg 87%
    02:00 -5°C° 0 mm 5 mps 750 mmHg 88%
    03:00 -5°C° 0 mm 5 mps 750 mmHg 88%
    04:00 -5°C° 0 mm 5 mps 750 mmHg 88%
    05:00 -5°C° 0 mm 5 mps 750 mmHg 88%
    06:00 -5°C° 0.1 mm 5 mps 750 mmHg 89%
    07:00 -5°C° 0.1 mm 5 mps 750 mmHg 90%
    08:00 -5°C° 0.1 mm 5 mps 750 mmHg 91%
    09:00 -4°C° 0.3 mm 5 mps 750 mmHg 91%
    10:00 -4°C° 0.3 mm 5 mps 750 mmHg 91%
    11:00 -4°C° 0.3 mm 5 mps 750 mmHg 92%
    12:00 -3°C° 0.4 mm 4 mps 750 mmHg 92%
    13:00 -3°C° 0.4 mm 4 mps 750 mmHg 92%
    14:00 -3°C° 0.4 mm 4 mps 749 mmHg 91%
    15:00 -2°C° 0.2 mm 3 mps 750 mmHg 92%
    16:00 -2°C° 0.2 mm 3 mps 750 mmHg 93%
    17:00 -3°C° 0.2 mm 2 mps 750 mmHg 93%
    18:00 -3°C° 0.1 mm 2 mps 750 mmHg 93%
    19:00 -4°C° 0.1 mm 2 mps 750 mmHg 94%
    20:00 -4°C° 0.1 mm 2 mps 751 mmHg 94%
    21:00 -4°C° 0 mm 2 mps 751 mmHg 94%
    22:00 -2°C° 0 mm 1 mps 751 mmHg 94%
    23:00 -3°C° 0 mm 1 mps 752 mmHg 95%

    21 December, Thursday

    Time Temperature Precipitation Wind Pressure Humidity
    00:00 -3°C° 0 mm 1 mps 752 mmHg 95%
    01:00 -3°C° 0 mm 1 mps 752 mmHg 95%
    02:00 -3°C° 0 mm 1 mps 752 mmHg 95%
    03:00 -3°C° 0 mm 1 mps 752 mmHg 95%
    04:00 -3°C° 0 mm 1 mps 752 mmHg 96%
    05:00 -4°C° 0 mm 1 mps 752 mmHg 96%
    06:00 -4°C° 0 mm 1 mps 752 mmHg 96%
    07:00 -4°C° 0 mm 1 mps 752 mmHg 95%
    08:00 -4°C° 0 mm 1 mps 752 mmHg 95%
    09:00 -3°C° 0 mm 1 mps 753 mmHg 94%
    10:00 -2°C° 0 mm 1 mps 753 mmHg 93%
    11:00 -4°C° 0 mm 2 mps 753 mmHg 91%
    12:00 -3°C° 0 mm 2 mps 752 mmHg 91%
    13:00 -3°C° 0 mm 2 mps 752 mmHg 90%
    14:00 -3°C° 0 mm 2 mps 751 mmHg 90%
    15:00 -4°C° 0 mm 2 mps 751 mmHg 91%
    16:00 -6°C° 0 mm 3 mps 750 mmHg 92%
    17:00 -6°C° 0 mm 3 mps 750 mmHg 93%
    18:00 -6°C° 0 mm 3 mps 749 mmHg 93%
    19:00 -6°C° 0 mm 3 mps 749 mmHg 93%
    20:00 -6°C° 0 mm 3 mps 749 mmHg 93%
    21:00 -5°C° 0 mm 4 mps 748 mmHg 91%
    22:00 -5°C° 0 mm 4 mps 748 mmHg 89%
    23:00 -6°C° 0 mm 5 mps 747 mmHg 87%

    22 December, Friday

    Time Temperature Precipitation Wind Pressure Humidity
    00:00 -6°C° 0.1 mm 5 mps 746 mmHg 88%
    01:00 -6°C° 0.1 mm 5 mps 746 mmHg 89%
    02:00 -5°C° 0.1 mm 6 mps 745 mmHg 89%
    03:00 -5°C° 0.3 mm 6 mps 744 mmHg 90%
    04:00 -5°C° 0.3 mm 6 mps 744 mmHg 91%
    05:00 -4°C° 0.3 mm 6 mps 743 mmHg 91%
    06:00 -3°C° 0.4 mm 6 mps 743 mmHg 92%
    07:00 -3°C° 0.4 mm 6 mps 743 mmHg 92%
    08:00 -2°C° 0.4 mm 7 mps 742 mmHg 92%
    09:00 -2°C° 0.2 mm 7 mps 742 mmHg 92%
    10:00 -2°C° 0.2 mm 7 mps 742 mmHg 92%
    11:00 -2°C° 0.2 mm 6 mps 742 mmHg 92%
    12:00 -2°C° 0.1 mm 7 mps 742 mmHg 92%
    13:00 -2°C° 0.1 mm 7 mps 742 mmHg 92%
    14:00 -2°C° 0.1 mm 7 mps 742 mmHg 92%
    15:00 -2°C° 0.1 mm 7 mps 741 mmHg 90%
    16:00 -2°C° 0.1 mm 7 mps 741 mmHg 88%
    17:00 -2°C° 0.1 mm 7 mps 741 mmHg 86%
    18:00 -2°C° 0.1 mm 7 mps 741 mmHg 86%
    19:00 -2°C° 0.1 mm 7 mps 741 mmHg 85%
    20:00 -3°C° 0.1 mm 7 mps 741 mmHg 85%
    21:00 -3°C° 0 mm 7 mps 741 mmHg 86%
    22:00 -4°C° 0 mm 6 mps 741 mmHg 88%
    23:00 -4°C° 0 mm 6 mps 740 mmHg 90%

    23 December, Saturday

    Time Temperature Precipitation Wind Pressure Humidity
    00:00 -4°C° 0 mm 5 mps 740 mmHg 91%
    01:00 -4°C° 0 mm 4 mps 740 mmHg 93%
    02:00 -4°C° 0 mm 4 mps 740 mmHg 95%
    03:00 -4°C° 0 mm 3 mps 740 mmHg 95%
    04:00 -4°C° 0 mm 3 mps 740 mmHg 96%
    05:00 -4°C° 0 mm 3 mps 740 mmHg 96%
    06:00 -3°C° 0.1 mm 2 mps 741 mmHg 96%
    07:00 -3°C° 0.1 mm 2 mps 741 mmHg 96%
    08:00 -2°C° 0.1 mm 2 mps 741 mmHg 95%
    09:00 -2°C° 0 mm 2 mps 741 mmHg 94%
    10:00 -2°C° 0 mm 2 mps 742 mmHg 93%
    11:00 -2°C° 0 mm 2 mps 742 mmHg 92%
    12:00 -1°C° 0.1 mm 2 mps 743 mmHg 92%
    13:00 -1°C° 0.1 mm 3 mps 743 mmHg 91%
    14:00 -1°C° 0.1 mm 3 mps 743 mmHg 90%
    15:00 -1°C° 0.1 mm 3 mps 743 mmHg 90%
    16:00 -3°C° 0.1 mm 4 mps 744 mmHg 90%
    17:00 -3°C° 0.1 mm 4 mps 744 mmHg 90%
    18:00 -3°C° 0 mm 4 mps 745 mmHg 90%
    19:00 -4°C° 0 mm 4 mps 745 mmHg 89%
    20:00 -4°C° 0 mm 4 mps 746 mmHg 88%
    21:00 -5°C° 0 mm 4 mps 746 mmHg 90%
    22:00 -5°C° 0 mm 4 mps 747 mmHg 91%
    23:00 -6°C° 0 mm 3 mps 747 mmHg 93%
    Show more